When you browse on this site, cookies collect data to enhance your experience and personalize the content and advertising you see.
Visit our Privacy Policy to learn more. By continuing to use the site, you agree to this use of cookies and data.

Previsão horária em Edige

Hoje, 6 Julho, Segunda-feira

Tempo Temperatura Precipitação Vento Pressão Humidade
00:00 +27°C° 0 mm 6 m/s 757 mmHg 47%
01:00 +26°C° 0 mm 6 m/s 757 mmHg 45%
02:00 +26°C° 0 mm 5 m/s 757 mmHg 42%
03:00 +26°C° 0 mm 4 m/s 756 mmHg 40%
04:00 +27°C° 0 mm 4 m/s 756 mmHg 40%
05:00 +27°C° 0 mm 4 m/s 757 mmHg 40%
06:00 +28°C° 0 mm 4 m/s 757 mmHg 40%
07:00 +32°C° 0 mm 6 m/s 757 mmHg 32%
08:00 +36°C° 0 mm 7 m/s 756 mmHg 24%
09:00 +40°C° 0 mm 8 m/s 756 mmHg 15%
10:00 +42°C° 0 mm 9 m/s 756 mmHg 14%
11:00 +43°C° 0 mm 10 m/s 756 mmHg 13%
12:00 +45°C° 0 mm 10 m/s 755 mmHg 11%
13:00 +46°C° 0 mm 11 m/s 755 mmHg 12%
14:00 +46°C° 0 mm 11 m/s 755 mmHg 12%
15:00 +44°C° 0 mm 11 m/s 755 mmHg 12%
16:00 +43°C° 0 mm 11 m/s 755 mmHg 14%
17:00 +42°C° 0 mm 10 m/s 755 mmHg 16%
18:00 +40°C° 0 mm 10 m/s 754 mmHg 18%
19:00 +37°C° 0 mm 9 m/s 755 mmHg 25%
20:00 +34°C° 0 mm 8 m/s 755 mmHg 32%
21:00 +31°C° 0 mm 8 m/s 756 mmHg 39%
22:00 +31°C° 0 mm 8 m/s 755 mmHg 39%
23:00 +30°C° 0 mm 7 m/s 755 mmHg 39%

Amanhã, 7 Julho, Terça-feira

Tempo Temperatura Precipitação Vento Pressão Humidade
00:00 +29°C° 0 mm 7 m/s 755 mmHg 39%
01:00 +29°C° 0 mm 7 m/s 755 mmHg 41%
02:00 +29°C° 0 mm 6 m/s 755 mmHg 43%
03:00 +28°C° 0 mm 6 m/s 755 mmHg 45%
04:00 +28°C° 0 mm 5 m/s 754 mmHg 45%
05:00 +29°C° 0 mm 5 m/s 754 mmHg 45%
06:00 +29°C° 0 mm 4 m/s 754 mmHg 45%
07:00 +33°C° 0 mm 6 m/s 754 mmHg 36%
08:00 +38°C° 0 mm 7 m/s 754 mmHg 26%
09:00 +42°C° 0 mm 9 m/s 754 mmHg 16%
10:00 +43°C° 0 mm 9 m/s 754 mmHg 15%
11:00 +44°C° 0 mm 10 m/s 754 mmHg 13%
12:00 +45°C° 0 mm 10 m/s 753 mmHg 12%
13:00 +46°C° 0 mm 11 m/s 753 mmHg 12%
14:00 +46°C° 0 mm 12 m/s 753 mmHg 12%
15:00 +46°C° 0 mm 12 m/s 753 mmHg 12%
16:00 +43°C° 0 mm 11 m/s 753 mmHg 15%
17:00 +42°C° 0 mm 11 m/s 753 mmHg 17%
18:00 +39°C° 0 mm 10 m/s 753 mmHg 19%
19:00 +37°C° 0 mm 9 m/s 753 mmHg 24%
20:00 +34°C° 0 mm 8 m/s 753 mmHg 29%
21:00 +32°C° 0 mm 7 m/s 754 mmHg 35%
22:00 +30°C° 0 mm 7 m/s 754 mmHg 37%
23:00 +30°C° 0 mm 7 m/s 753 mmHg 39%

Depois de amanhã, 8 Julho, Quarta-feira

Tempo Temperatura Precipitação Vento Pressão Humidade
00:00 +30°C° 0 mm 7 m/s 753 mmHg 41%
01:00 +29°C° 0 mm 7 m/s 753 mmHg 44%
02:00 +29°C° 0 mm 7 m/s 753 mmHg 48%
03:00 +28°C° 0 mm 6 m/s 753 mmHg 51%
04:00 +29°C° 0 mm 6 m/s 753 mmHg 50%
05:00 +29°C° 0 mm 6 m/s 753 mmHg 48%
06:00 +30°C° 0 mm 6 m/s 754 mmHg 47%
07:00 +34°C° 0 mm 6 m/s 754 mmHg 39%
08:00 +36°C° 0 mm 6 m/s 754 mmHg 30%
09:00 +40°C° 0 mm 6 m/s 754 mmHg 22%
10:00 +41°C° 0 mm 7 m/s 754 mmHg 19%
11:00 +44°C° 0 mm 7 m/s 753 mmHg 16%
12:00 +45°C° 0 mm 8 m/s 753 mmHg 14%
13:00 +45°C° 0 mm 8 m/s 753 mmHg 13%
14:00 +45°C° 0 mm 8 m/s 753 mmHg 13%
15:00 +45°C° 0 mm 8 m/s 753 mmHg 13%
16:00 +44°C° 0 mm 8 m/s 753 mmHg 14%
17:00 +43°C° 0 mm 8 m/s 754 mmHg 16%
18:00 +40°C° 0 mm 8 m/s 754 mmHg 17%
19:00 +38°C° 0 mm 6 m/s 754 mmHg 24%
20:00 +34°C° 0 mm 4 m/s 755 mmHg 32%
21:00 +30°C° 0 mm 3 m/s 755 mmHg 39%
22:00 +30°C° 0 mm 2 m/s 755 mmHg 42%
23:00 +30°C° 0 mm 2 m/s 755 mmHg 45%

9 Julho, Quinta-feira

Tempo Temperatura Precipitação Vento Pressão Humidade
00:00 +29°C° 0 mm 1 m/s 755 mmHg 48%
01:00 +29°C° 0 mm 3 m/s 756 mmHg 49%
02:00 +30°C° 0 mm 4 m/s 756 mmHg 50%
03:00 +30°C° 0 mm 5 m/s 756 mmHg 51%
04:00 +30°C° 0.1 mm 5 m/s 756 mmHg 51%
05:00 +30°C° 0.1 mm 6 m/s 756 mmHg 51%
06:00 +29°C° 0.1 mm 6 m/s 757 mmHg 52%
07:00 +30°C° 0 mm 6 m/s 757 mmHg 49%
08:00 +30°C° 0 mm 7 m/s 757 mmHg 46%
09:00 +32°C° 0 mm 8 m/s 757 mmHg 43%
10:00 +32°C° 0 mm 8 m/s 758 mmHg 45%
11:00 +31°C° 0 mm 8 m/s 758 mmHg 48%
12:00 +31°C° 0 mm 8 m/s 758 mmHg 50%
13:00 +32°C° 0 mm 7 m/s 758 mmHg 50%
14:00 +32°C° 0 mm 6 m/s 758 mmHg 50%
15:00 +32°C° 0 mm 5 m/s 757 mmHg 49%
16:00 +33°C° 0 mm 5 m/s 758 mmHg 45%
17:00 +34°C° 0 mm 4 m/s 758 mmHg 41%
18:00 +36°C° 0 mm 4 m/s 758 mmHg 37%
19:00 +34°C° 0.1 mm 4 m/s 759 mmHg 39%
20:00 +33°C° 0.1 mm 5 m/s 759 mmHg 42%
21:00 +32°C° 0.1 mm 6 m/s 760 mmHg 45%
22:00 +30°C° 0 mm 6 m/s 760 mmHg 45%
23:00 +29°C° 0 mm 5 m/s 760 mmHg 44%

10 Julho, Sexta-feira

Tempo Temperatura Precipitação Vento Pressão Humidade
00:00 +28°C° 0 mm 5 m/s 761 mmHg 44%
01:00 +27°C° 0 mm 5 m/s 761 mmHg 47%
02:00 +27°C° 0 mm 5 m/s 761 mmHg 50%
03:00 +26°C° 0 mm 5 m/s 762 mmHg 54%
04:00 +26°C° 0 mm 5 m/s 762 mmHg 55%
05:00 +26°C° 0 mm 5 m/s 762 mmHg 56%
06:00 +26°C° 0 mm 5 m/s 763 mmHg 57%
07:00 +27°C° 0 mm 6 m/s 763 mmHg 54%
08:00 +28°C° 0 mm 6 m/s 763 mmHg 51%
09:00 +29°C° 0 mm 6 m/s 763 mmHg 48%
10:00 +30°C° 0 mm 6 m/s 763 mmHg 42%
11:00 +32°C° 0 mm 6 m/s 763 mmHg 37%
12:00 +34°C° 0 mm 6 m/s 763 mmHg 32%
13:00 +34°C° 0 mm 6 m/s 762 mmHg 29%
14:00 +35°C° 0 mm 6 m/s 762 mmHg 27%
15:00 +36°C° 0 mm 6 m/s 762 mmHg 24%
16:00 +35°C° 0 mm 5 m/s 762 mmHg 24%
17:00 +35°C° 0 mm 5 m/s 762 mmHg 24%
18:00 +35°C° 0 mm 4 m/s 762 mmHg 24%
19:00 +33°C° 0 mm 4 m/s 762 mmHg 27%
20:00 +30°C° 0 mm 4 m/s 763 mmHg 29%
21:00 +29°C° 0 mm 3 m/s 763 mmHg 32%
22:00 +28°C° 0 mm 3 m/s 763 mmHg 32%
23:00 +27°C° 0 mm 3 m/s 763 mmHg 33%

11 Julho, Sábado

Tempo Temperatura Precipitação Vento Pressão Humidade
00:00 +26°C° 0 mm 3 m/s 763 mmHg 34%
01:00 +26°C° 0 mm 3 m/s 763 mmHg 37%
02:00 +25°C° 0 mm 3 m/s 763 mmHg 39%
03:00 +24°C° 0 mm 2 m/s 763 mmHg 42%
04:00 +24°C° 0 mm 2 m/s 763 mmHg 42%
05:00 +25°C° 0 mm 2 m/s 763 mmHg 43%
06:00 +26°C° 0 mm 2 m/s 764 mmHg 44%
07:00 +27°C° 0 mm 3 m/s 764 mmHg 40%
08:00 +29°C° 0 mm 3 m/s 764 mmHg 36%
09:00 +32°C° 0 mm 4 m/s 763 mmHg 33%
10:00 +32°C° 0 mm 4 m/s 763 mmHg 30%
11:00 +33°C° 0 mm 4 m/s 763 mmHg 28%
12:00 +34°C° 0 mm 4 m/s 762 mmHg 25%
13:00 +35°C° 0 mm 4 m/s 762 mmHg 23%
14:00 +35°C° 0 mm 5 m/s 762 mmHg 21%
15:00 +36°C° 0 mm 5 m/s 761 mmHg 18%
16:00 +36°C° 0 mm 4 m/s 761 mmHg 18%
17:00 +35°C° 0 mm 4 m/s 761 mmHg 18%
18:00 +35°C° 0 mm 3 m/s 761 mmHg 18%
19:00 +31°C° 0 mm 3 m/s 761 mmHg 23%
20:00 +29°C° 0 mm 3 m/s 761 mmHg 27%
21:00 +27°C° 0 mm 3 m/s 761 mmHg 32%
22:00 +25°C° 0 mm 2 m/s 761 mmHg 36%
23:00 +24°C° 0 mm 1 m/s 760 mmHg 40%
Mostrar mais